"Pseudo-MPEC" for P21CmHp

Created 2022 Dec 21 21:22:18 UT using Find_Orb

Click here for an explanation of pseudo-MPECs

 
 Astrometry: 
     P21CmHp* C2022 12 01k!c?3nLUPttlru1uhUE,WOqZo.4VT6tsl-Ar8jLs\AstrometryDF52
     P21CmHp  C2022 12 01nH?7redacted;WeC4nclicknHc#7t1'H^s/%7%Q*o$#+HqSh.d-RF52
     P21CmHp  C2022 12 01x!F!?#8m4?orl$R)))gRaj]dk,$hereU90.n1/gh!Z#tOOf-[Ij?F52
     P21CmHp  C2022 12 017B[ZjQKvVifh8QQ%@R:wCLlQ.AMfor--BxRtI(*)explanationLF52

Station data:
(F52) Pan-STARRS 2, Haleakala  (N20.707382 W156.255910)  US/Hawaii.
   Observers J. Bulger, T. Dukes, T. Lowe, A. Schultz, M. Willman. Measurers
   K. Chambers, S. Chastel, T. de Boer, L. Denneau, J. Fairlamb, H.
   Flewelling, M. Huber, C.-C. Lin, E. Magnier, Y. Ramanjooloo, R. Wainscoat,
   R. Weryk. 1.8-m Ritchey-Chrétien + CCD.

Orbital elements:  P21CmHp
   Perihelion 2023 Oct 28.51512 +/- 186 TT = 12:21:46 (JD 2460246.01512)
Epoch 2022 Dec  1.0 TT = JDT 2459914.5   Earth MOID: 0.6608      AutoNEOCP
M 222.60517647 +/- 100              (J2000 ecliptic)
n   0.41444512 +/- 0.257            Peri.  329.03307 +/- 90
a   1.78165943 +/- 0.736            Node   242.32597 +/- 33
e   0.0680927 +/- 0.281             Incl.   22.06701 +/- 27
P   2.38/868.61d           H 20.11  G  0.15   U 11.8  SR
q 1.66034127 +/- 0.717    Q 1.90297759 +/- 34.8
From 4 observations 2022 Dec. 1 (52.9 min); mean residual 0".07
Residuals in arcseconds: 
221201 F52  .10-  .03-    221201 F52  .00   .00     
221201 F52  .14+  .05+    221201 F52  .05-  .01-    

Ephemerides (geocentric):
Date (UTC) HH   RA             Dec           delta  r     elong  mag " sig PA
---- --------  ------------   ------------  ------ ------ -----  --- --------
2022 12 21 21  04 04 56.571   +09 54 57.49  .94542 1.8623 149.7 22.2  36d 169
2022 12 21 22  04 04 54.260   +09 54 18.24  .94564 1.8623 149.7 22.2  36d 169
2022 12 21 23  04 04 51.954   +09 53 39.02  .94585 1.8622 149.6 22.2  36d 169
2022 12 22 00  04 04 49.651   +09 52 59.85  .94607 1.8622 149.6 22.2  36d 169
2022 12 22 01  04 04 47.353   +09 52 20.72  .94629 1.8622 149.5 22.2  36d 169
2022 12 22 02  04 04 45.059   +09 51 41.63  .94651 1.8622 149.5 22.2  36d 169
2022 12 22 03  04 04 42.769   +09 51 02.58  .94673 1.8621 149.4 22.2  36d 169
2022 12 22 04  04 04 40.484   +09 50 23.58  .94695 1.8621 149.4 22.2  36d 169
2022 12 22 05  04 04 38.202   +09 49 44.62  .94717 1.8621 149.3 22.2  36d 169
2022 12 22 06  04 04 35.925   +09 49 05.70  .94739 1.8621 149.2 22.2  36d 169
2022 12 22 07  04 04 33.652   +09 48 26.82  .94762 1.8620 149.2 22.2  37d 169
2022 12 22 08  04 04 31.383   +09 47 47.99  .94784 1.8620 149.1 22.3  37d 169
2022 12 22 09  04 04 29.118   +09 47 09.20  .94806 1.8620 149.1 22.3  37d 169
2022 12 22 10  04 04 26.858   +09 46 30.45  .94828 1.8620 149.0 22.3  37d 169
2022 12 22 11  04 04 24.601   +09 45 51.74  .94851 1.8619 149.0 22.3  37d 169
2022 12 22 12  04 04 22.349   +09 45 13.08  .94873 1.8619 148.9 22.3  37d 169
2022 12 22 13  04 04 20.101   +09 44 34.46  .94895 1.8619 148.9 22.3  37d 169
2022 12 22 14  04 04 17.857   +09 43 55.88  .94918 1.8619 148.8 22.3  37d 169
2022 12 22 15  04 04 15.617   +09 43 17.35  .94940 1.8618 148.8 22.3  37d 169
2022 12 22 16  04 04 13.382   +09 42 38.85  .94963 1.8618 148.7 22.3  37d 168
2022 12 22 17  04 04 11.151   +09 42 00.41  .94985 1.8618 148.7 22.3  37d 168
2022 12 22 18  04 04 08.924   +09 41 22.00  .95008 1.8618 148.6 22.3  37d 168
2022 12 22 19  04 04 06.701   +09 40 43.64  .95030 1.8617 148.6 22.3  37d 168
2022 12 22 20  04 04 04.483   +09 40 05.31  .95053 1.8617 148.5 22.3  37d 168
2022 12 22 21  04 04 02.268   +09 39 27.04  .95076 1.8617 148.5 22.3  37d 168
2022 12 22 22  04 04 00.058   +09 38 48.80  .95098 1.8616 148.4 22.3  37d 168
2022 12 22 23  04 03 57.852   +09 38 10.61  .95121 1.8616 148.3 22.3  37d 168
2022 12 23 00  04 03 55.651   +09 37 32.46  .95144 1.8616 148.3 22.3  37d 168
2022 12 23 01  04 03 53.453   +09 36 54.36  .95167 1.8616 148.2 22.3  37d 168
2022 12 23 02  04 03 51.260   +09 36 16.29  .95190 1.8615 148.2 22.3  37d 168
2022 12 23 03  04 03 49.071   +09 35 38.27  .95212 1.8615 148.1 22.3  37d 168
2022 12 23 04  04 03 46.887   +09 35 00.30  .95235 1.8615 148.1 22.3  37d 168
2022 12 23 05  04 03 44.706   +09 34 22.36  .95258 1.8615 148.0 22.3  37d 168
2022 12 23 06  04 03 42.530   +09 33 44.47  .95281 1.8614 148.0 22.3  37d 168
2022 12 23 07  04 03 40.359   +09 33 06.63  .95304 1.8614 147.9 22.3  37d 168
2022 12 23 08  04 03 38.191   +09 32 28.82  .95327 1.8614 147.9 22.3  37d 168
2022 12 23 09  04 03 36.028   +09 31 51.06  .95351 1.8614 147.8 22.3  37d 168
2022 12 23 10  04 03 33.869   +09 31 13.35  .95374 1.8613 147.8 22.3  37d 168
2022 12 23 11  04 03 31.714   +09 30 35.67  .95397 1.8613 147.7 22.3  37d 168
2022 12 23 12  04 03 29.563   +09 29 58.04  .95420 1.8613 147.7 22.3  37d 168
2022 12 23 13  04 03 27.417   +09 29 20.45  .95443 1.8612 147.6 22.3  37d 168
2022 12 23 14  04 03 25.275   +09 28 42.91  .95467 1.8612 147.6 22.3  37d 168
2022 12 23 15  04 03 23.138   +09 28 05.41  .95490 1.8612 147.5 22.3  37d 168
2022 12 23 16  04 03 21.004   +09 27 27.95  .95513 1.8612 147.5 22.3  37d 168
2022 12 23 17  04 03 18.875   +09 26 50.54  .95537 1.8611 147.4 22.3  37d 168
2022 12 23 18  04 03 16.751   +09 26 13.17  .95560 1.8611 147.4 22.3  37d 168
2022 12 23 19  04 03 14.630   +09 25 35.84  .95584 1.8611 147.3 22.3  37d 168
2022 12 23 20  04 03 12.514   +09 24 58.56  .95607 1.8611 147.2 22.3  37d 168